FW8667 Weather Reports


time (UTC)temp
C
wind
direction
speed
KPH
gust
KPH
rain 1hr
cm
rain 24hr
cm
rain mn
cm
humidity
%
barometer
mb
20240222104805 21 9 3.2 4.8 0.00 0.00 0.00 46 1023.1
20240222104304 20 355 3.2 4.8 0.00 0.00 0.00 46 1023.4
20240222103804 20 294 1.6 6.4 0.00 0.00 0.00 46 1023.1
20240222103303 20 31 4.8 6.4 0.00 0.00 0.00 46 1023.1
20240222102801 20 90 3.2 6.4 0.00 0.00 0.00 46 1023.3
20240222102300 20 286 0.0 6.4 0.00 0.00 0.00 47 1023.3
20240222101801 20 313 0.0 6.4 0.00 0.00 0.00 47 1023.3
20240222101300 20 336 0.0 6.4 0.00 0.00 0.00 47 1023.7
20240222100759 20 305 0.0 6.4 0.00 0.00 0.00 47 1023.7
20240222100257 20 337 4.8 6.4 0.00 0.00 0.00 47 1023.6
20240222095756 20 309 8.0 8.0 0.00 0.00 0.00 48 1023.7
20240222095254 20 15 0.0 4.8 0.00 0.00 0.00 49 1023.9
20240222094754 20 8 0.0 6.4 0.00 0.00 0.00 49 1024.0
20240222094253 20 10 4.8 4.8 0.00 0.00 0.00 52 1024.0
20240222093753 20 96 3.2 6.4 0.00 0.00 0.00 52 1024.1
20240222093252 20 301 6.4 8.0 0.00 0.00 0.00 52 1024.2
20240222092752 20 356 6.4 8.0 0.00 0.00 0.00 55 1024.0
20240222092251 20 335 4.8 8.0 0.00 0.00 0.00 54 1024.3
20240222091751 20 61 3.2 9.7 0.00 0.00 0.00 55 1024.1
20240222091250 20 306 0.0 8.0 0.00 0.00 0.00 54 1024.5
20240222090750 20 70 3.2 6.4 0.00 0.00 0.00 56 1024.3
20240222090249 20 61 9.7 9.7 0.00 0.00 0.00 58 1024.7
20240222085747 20 59 6.4 8.0 0.00 0.00 0.00 59 1024.7
20240222085246 19 357 3.2 8.0 0.00 0.00 0.00 58 1024.8
20240222084745 19 270 0.0 8.0 0.00 0.00 0.00 59 1024.8
20240222084246 19 71 4.8 8.0 0.00 0.00 0.00 60 1024.8
20240222083744 20 356 0.0 6.4 0.00 0.00 0.00 59 1025.1
20240222083243 20 16 0.0 8.0 0.00 0.00 0.00 59 1025.0
20240222082741 20 37 3.2 6.4 0.00 0.00 0.00 59 1025.0
20240222082241 19 49 4.8 8.0 0.00 0.00 0.00 59 1025.2
20240222081740 19 282 3.2 6.4 0.00 0.00 0.00 57 1025.1
20240222081239 18 34 4.8 6.4 0.00 0.00 0.00 61 1025.0
20240222080127 19 314 9.7 9.7 0.00 0.00 0.00 60 1025.2
20240222075626 20 81 3.2 8.0 0.00 0.00 0.00 62 1025.4
20240222075124 19 318 4.8 6.4 0.00 0.00 0.00 61 1025.2
20240222074624 19 21 3.2 6.4 0.00 0.00 0.00 61 1025.5
20240222074123 19 322 3.2 4.8 0.00 0.00 0.00 62 1025.7
20240222073622 19 52 3.2 6.4 0.00 0.00 0.00 62 1025.5
20240222073121 19 0 3.2 4.8 0.00 0.00 0.00 63 1025.8
20240222072620 18 342 4.8 8.0 0.00 0.00 0.00 63 1025.9
20240222072119 18 336 3.2 4.8 0.00 0.00 0.00 62 1025.6
20240222071618 18 346 0.0 6.4 0.00 0.00 0.00 64 1026.0
20240222071116 18 357 3.2 6.4 0.00 0.00 0.00 64 1025.9
20240222070615 18 33 4.8 6.4 0.00 0.00 0.00 63 1025.9
20240222070113 18 332 0.0 8.0 0.00 0.00 0.00 64 1025.9
20240222065612 18 0 3.2 6.4 0.00 0.00 0.00 63 1025.7
20240222065110 18 0 1.6 8.0 0.00 0.00 0.00 62 1025.6
20240222064608 18 349 4.8 6.4 0.00 0.00 0.00 63 1025.7
20240222064107 18 5 0.0 6.4 0.00 0.00 0.00 63 1025.8
20240222063606 18 352 3.2 6.4 0.00 0.00 0.00 64 1025.9
20240222063105 18 345 4.8 4.8 0.00 0.00 0.00 64 1025.7
20240222062605 18 352 4.8 6.4 0.00 0.00 0.00 63 1025.4
20240222062105 18 356 6.4 6.4 0.00 0.00 0.00 61 1025.7
20240222061603 18 15 1.6 3.2 0.00 0.00 0.00 60 1025.7
20240222061102 18 356 0.0 6.4 0.00 0.00 0.00 61 1025.8
20240222060600 18 342 0.0 6.4 0.00 0.00 0.00 61 1025.7
20240222060100 18 0 0.0 4.8 0.00 0.00 0.00 61 1025.7
20240222055559 18 8 0.0 3.2 0.00 0.00 0.00 61 1025.8
20240222055058 18 24 3.2 4.8 0.00 0.00 0.00 62 1025.7
20240222054556 18 289 1.6 6.4 0.00 0.00 0.00 62 1025.6
20240222054055 18 6 1.6 4.8 0.00 0.00 0.00 63 1025.4
20240222053554 18 61 3.2 4.8 0.00 0.00 0.00 64 1025.6
20240222053052 18 344 3.2 4.8 0.00 0.00 0.00 64 1025.7
20240222052551 18 75 0.0 4.8 0.00 0.00 0.00 66 1025.5
20240222052049 17 14 3.2 4.8 0.00 0.00 0.00 66 1025.3
20240222051548 17 97 1.6 4.8 0.00 0.00 0.00 67 1025.4
20240222051047 17 330 3.2 3.2 0.00 0.00 0.00 68 1025.3
20240222050547 17 19 0.0 3.2 0.00 0.00 0.00 68 1025.2
20240222050045 17 334 0.0 4.8 0.00 0.00 0.00 68 1025.4
20240222045545 16 336 3.2 4.8 0.00 0.00 0.00 68 1025.1
20240222045045 16 0 1.6 3.2 0.00 0.00 0.00 69 1025.0
20240222044543 16 341 4.8 4.8 0.00 0.00 0.00 70 1024.9
20240222044042 16 331 4.8 6.4 0.00 0.00 0.00 71 1025.0
20240222043540 16 325 1.6 3.2 0.00 0.00 0.00 72 1024.8
20240222043038 16 11 3.2 3.2 0.00 0.00 0.00 72 1024.7
20240222042536 16 350 3.2 3.2 0.00 0.00 0.00 72 1024.8
20240222042036 16 63 1.6 4.8 0.00 0.00 0.00 72 1024.7
20240222041534 16 320 0.0 3.2 0.00 0.00 0.00 72 1024.8
20240222041032 16 309 0.0 4.8 0.00 0.00 0.00 72 1024.6
20240222040530 16 337 0.0 3.2 0.00 0.00 0.00 73 1024.6
20240222040028 15 0 0.0 0.0 0.00 0.00 0.00 72 1024.6
20240222035528 15 0 0.0 0.0 0.00 0.00 0.00 72 1024.7
20240222035027 15 0 0.0 0.0 0.00 0.00 0.00 72 1024.8
20240222034527 15 106 0.0 1.6 0.00 0.00 0.00 72 1024.5
20240222034025 15 90 0.0 0.0 0.00 0.00 0.00 72 1024.5
20240222033524 15 90 0.0 0.0 0.00 0.00 0.00 72 1024.5
20240222033022 15 90 0.0 0.0 0.00 0.00 0.00 71 1024.4
20240222032520 15 345 0.0 1.6 0.00 0.00 0.00 71 1024.5
20240222032020 15 60 0.0 0.0 0.00 0.00 0.00 71 1024.4
20240222031517 15 0 0.0 1.6 0.00 0.00 0.00 70 1024.4
20240222031015 16 337 0.0 3.2 0.00 0.00 0.00 70 1024.3
20240222030513 16 35 0.0 0.0 0.00 0.00 0.00 70 1024.5
20240222030013 16 75 1.6 3.2 0.00 0.00 0.00 70 1024.4
20240222025511 16 344 0.0 4.8 0.00 0.00 0.00 69 1024.3
20240222025010 16 279 0.0 4.8 0.00 0.00 0.00 69 1024.2
20240222024510 16 348 1.6 3.2 0.00 0.00 0.00 69 1024.1
20240222024009 16 334 0.0 4.8 0.00 0.00 0.00 69 1024.1
20240222023508 16 343 3.2 4.8 0.00 0.00 0.00 70 1023.9
20240222023006 16 45 3.2 4.8 0.00 0.00 0.00 69 1024.1
20240222022505 16 0 0.0 6.4 0.00 0.00 0.00 69 1023.8
20240222022004 16 337 0.0 6.4 0.00 0.00 0.00 69 1024.1
20240222021502 16 310 4.8 4.8 0.00 0.00 0.00 69 1023.9
20240222021001 16 265 0.0 4.8 0.00 0.00 0.00 70 1023.8
20240222020459 16 331 1.6 8.0 0.00 0.00 0.00 69 1024.1
20240222015958 16 289 3.2 6.4 0.00 0.00 0.00 70 1024.0
20240222015457 16 28 3.2 8.0 0.00 0.00 0.00 69 1023.8
20240222014956 16 15 0.0 4.8 0.00 0.00 0.00 69 1023.9
20240222014455 16 90 0.0 4.8 0.00 0.00 0.00 70 1023.8
20240222013953 16 0 4.8 6.4 0.00 0.00 0.00 69 1023.9
20240222013451 16 346 3.2 8.0 0.00 0.00 0.00 69 1023.6
20240222012950 16 355 4.8 6.4 0.00 0.00 0.00 69 1023.6
20240222012450 16 334 0.0 8.0 0.00 0.00 0.00 69 1023.6
20240222011950 16 304 4.8 6.4 0.00 0.00 0.00 69 1023.6
20240222011447 16 311 4.8 6.4 0.00 0.00 0.00 69 1023.5
20240222010947 16 304 3.2 6.4 0.00 0.00 0.00 69 1023.4
20240222010446 16 294 1.6 6.4 0.00 0.00 0.00 69 1023.5
20240222005944 16 285 4.8 8.0 0.00 0.00 0.00 68 1023.6
20240222005442 16 327 8.0 9.7 0.00 0.00 0.00 68 1023.4
20240222004941 16 358 4.8 9.7 0.00 0.00 0.00 68 1023.4
20240222004441 16 331 4.8 8.0 0.00 0.00 0.00 68 1023.6
20240222003941 16 345 1.6 6.4 0.00 0.00 0.00 68 1023.5
20240222003439 16 342 1.6 8.0 0.00 0.00 0.00 68 1023.5
20240222002938 16 297 0.0 6.4 0.00 0.00 0.00 67 1023.8
20240222002438 16 319 3.2 9.7 0.00 0.00 0.00 67 1023.5
20240222001935 16 331 4.8 9.7 0.00 0.00 0.00 66 1023.7
20240222001433 16 344 6.4 8.0 0.00 0.00 0.00 67 1023.7
20240222000933 16 349 3.2 6.4 0.00 0.00 0.00 69 1023.7
20240222000430 16 342 3.2 6.4 0.00 0.00 0.00 69 1023.7
20240221235927 16 344 0.0 4.8 0.00 0.00 0.00 70 1023.8
20240221235425 16 5 1.6 3.2 0.00 0.00 0.00 69 1023.7
20240221234924 16 29 1.6 4.8 0.00 0.00 0.00 69 1023.8
20240221234422 16 0 1.6 4.8 0.00 0.00 0.00 69 1023.8
20240221233920 16 346 1.6 6.4 0.00 0.00 0.00 69 1023.9
20240221233418 16 315 3.2 6.4 0.00 0.00 0.00 68 1023.9
20240221232916 16 0 1.6 6.4 0.00 0.00 0.00 67 1023.9
20240221232416 17 90 0.0 4.8 0.00 0.00 0.00 68 1023.9
20240221231914 17 330 3.2 4.8 0.00 0.00 0.00 67 1023.7
20240221231410 17 311 3.2 6.4 0.00 0.00 0.00 68 1023.7
20240221230828 16 3 4.8 6.4 0.00 0.00 0.00 68 1023.9
20240221230325 16 310 4.8 4.8 0.00 0.00 0.00 68 1023.9
20240221225824 17 305 0.0 4.8 0.00 0.00 0.00 67 1024.1
20240221225323 16 334 3.2 3.2 0.00 0.00 0.00 67 1023.7
20240221224821 17 294 3.2 4.8 0.00 0.00 0.00 67 1023.8
20240221224319 16 285 3.2 4.8 0.00 0.00 0.00 67 1024.1
20240221223819 17 342 1.6 4.8 0.00 0.00 0.00 67 1024.1
20240221223319 17 184 3.2 6.4 0.00 0.00 0.00 66 1023.9
20240221222819 17 6 0.0 4.8 0.00 0.00 0.00 66 1024.0
20240221222317 17 332 3.2 6.4 0.00 0.00 0.00 66 1024.0
20240221221816 17 19 3.2 6.4 0.00 0.00 0.00 67 1024.2
20240221221316 17 334 3.2 4.8 0.00 0.00 0.00 67 1023.9
20240221220815 17 32 4.8 4.8 0.00 0.00 0.00 67 1024.0
20240221220315 17 0 0.0 8.0 0.00 0.00 0.00 66 1023.9
20240221215815 17 229 0.0 6.4 0.00 0.00 0.00 66 1023.9
20240221215314 17 346 3.2 4.8 0.00 0.00 0.00 66 1023.7
20240221214813 17 324 4.8 8.0 0.00 0.00 0.00 65 1023.8
20240221214311 17 330 3.2 9.7 0.00 0.00 0.00 64 1023.6
20240221213809 17 336 6.4 8.0 0.00 0.00 0.00 65 1023.8
20240221213307 17 290 3.2 11.3 0.00 0.00 0.00 65 1023.5
20240221212807 18 319 11.3 11.3 0.00 0.00 0.00 65 1023.7
20240221212306 17 310 8.0 11.3 0.00 0.00 0.00 64 1023.5
20240221211806 17 15 3.2 11.3 0.00 0.00 0.00 66 1023.4
20240221211304 17 296 4.8 8.0 0.00 0.00 0.00 66 1023.6
20240221210804 17 0 3.2 8.0 0.00 0.00 0.00 66 1023.7
20240221210303 17 310 6.4 8.0 0.00 0.00 0.00 66 1023.3
20240221205802 17 337 4.8 6.4 0.00 0.00 0.00 68 1023.7
20240221205305 17 299 4.8 8.0 0.00 0.00 0.00 68 1023.7
20240221204801 18 0 4.8 8.0 0.00 0.00 0.00 68 1023.8
20240221204301 17 32 0.0 8.0 0.00 0.00 0.00 66 1024.0
20240221203801 18 303 3.2 6.4 0.00 0.00 0.00 67 1024.0
20240221203301 17 355 3.2 6.4 0.00 0.00 0.00 67 1023.8
20240221202801 17 19 3.2 4.8 0.00 0.00 0.00 67 1023.8
20240221202305 17 8 0.0 4.8 0.00 0.00 0.00 66 1023.8
20240221201800 18 0 0.0 6.4 0.00 0.00 0.00 66 1023.7
20240221201259 17 42 4.8 4.8 0.00 0.00 0.00 65 1023.8
20240221200759 18 0 1.6 6.4 0.00 0.00 0.00 64 1023.8
20240221200258 18 0 4.8 6.4 0.00 0.00 0.00 63 1023.9
20240221195758 18 339 4.8 8.0 0.00 0.00 0.00 63 1024.0
20240221195257 18 330 0.0 8.0 0.00 0.00 0.00 65 1023.9
20240221194756 18 341 3.2 6.4 0.00 0.00 0.00 65 1024.0
20240221194255 18 22 3.2 4.8 0.00 0.00 0.00 65 1023.8
20240221193754 18 99 0.0 6.4 0.00 0.00 0.00 65 1023.9
20240221193255 18 317 6.4 6.4 0.00 0.00 0.00 67 1023.9
20240221192753 18 14 1.6 6.4 0.00 0.00 0.00 67 1024.0
20240221192251 18 288 0.0 4.8 0.00 0.00 0.00 67 1023.9
20240221191751 17 348 1.6 4.8 0.00 0.00 0.00 68 1023.6
20240221191250 18 356 0.0 8.0 0.00 0.00 0.00 68 1023.8
20240221190748 18 341 0.0 6.4 0.00 0.00 0.00 68 1023.8
20240221190246 18 328 4.8 6.4 0.00 0.00 0.00 70 1023.9
20240221185744 18 0 0.0 4.8 0.00 0.00 0.00 71 1023.9
20240221185244 18 53 0.0 4.8 0.00 0.00 0.00 70 1023.9
20240221184743 18 23 1.6 3.2 0.00 0.00 0.00 70 1023.8
20240221184242 18 340 1.6 3.2 0.00 0.00 0.00 69 1024.0
20240221183741 18 0 1.6 6.4 0.00 0.00 0.00 67 1024.0
20240221183240 18 311 4.8 6.4 0.00 0.00 0.00 67 1023.7
20240221182739 18 323 3.2 4.8 0.00 0.00 0.00 67 1024.1
20240221182239 18 227 4.8 4.8 0.00 0.00 0.00 66 1023.9
20240221181738 18 356 3.2 9.7 0.00 0.00 0.00 66 1023.9
20240221181238 18 309 0.0 6.4 0.00 0.00 0.00 65 1024.1
20240221180737 18 33 3.2 4.8 0.00 0.00 0.00 65 1023.8
20240221180236 19 349 3.2 6.4 0.00 0.00 0.00 66 1024.0
20240221175736 18 357 4.8 8.0 0.00 0.00 0.00 65 1023.9
20240221175235 19 15 1.6 6.4 0.00 0.00 0.00 65 1023.8
20240221174734 19 22 4.8 6.4 0.00 0.00 0.00 64 1024.0
20240221174232 19 342 4.8 6.4 0.00 0.00 0.00 63 1023.9
20240221173731 19 313 4.8 11.3 0.00 0.00 0.00 62 1023.9
20240221173230 19 327 3.2 8.0 0.00 0.00 0.00 62 1023.9
20240221172730 19 333 4.8 8.0 0.00 0.00 0.00 61 1023.8
20240221172228 19 350 6.4 8.0 0.00 0.00 0.00 61 1023.7
20240221171649 19 69 0.0 6.4 0.00 0.00 0.00 61 1023.6
20240221171148 19 31 4.8 6.4 0.00 0.00 0.00 61 1023.8
20240221170646 19 343 0.0 9.7 0.00 0.00 0.00 62 1023.9
20240221170146 19 357 4.8 8.0 0.00 0.00 0.00 62 1023.6
20240221165645 19 321 4.8 6.4 0.00 0.00 0.00 60 1023.5
20240221165143 19 350 3.2 6.4 0.00 0.00 0.00 59 1023.7
20240221164642 20 286 1.6 8.0 0.00 0.00 0.00 59 1023.6
20240221164141 20 270 0.0 8.0 0.00 0.00 0.00 59 1023.7
20240221163641 20 328 4.8 6.4 0.00 0.00 0.00 59 1023.6
20240221163140 20 8 3.2 8.0 0.00 0.00 0.00 60 1023.8
20240221162639 20 24 3.2 9.7 0.00 0.00 0.00 60 1023.6
20240221162138 20 0 0.0 8.0 0.00 0.00 0.00 58 1023.6
20240221161624 20 353 4.8 6.4 0.00 0.00 0.00 58 1023.7
20240221161123 20 313 4.8 6.4 0.00 0.00 0.00 58 1023.6
20240221160622 20 51 3.2 8.0 0.00 0.00 0.00 56 1023.6
20240221160121 20 355 3.2 6.4 0.00 0.00 0.00 57 1023.4
20240221155620 20 348 4.8 4.8 0.00 0.00 0.00 57 1023.5
20240221155120 20 51 6.4 8.0 0.00 0.00 0.00 59 1023.3
20240221154618 20 356 0.0 8.0 0.00 0.00 0.00 60 1023.4
20240221154116 19 0 3.2 8.0 0.00 0.00 0.00 64 1023.2
20240221153614 20 315 4.8 6.4 0.00 0.00 0.00 66 1023.1
20240221153113 20 313 4.8 8.0 0.00 0.00 0.00 65 1023.3
20240221152611 20 16 3.2 6.4 0.00 0.00 0.00 65 1023.0
20240221152108 20 4 3.2 6.4 0.00 0.00 0.00 63 1023.0
20240221151608 20 348 3.2 6.4 0.00 0.00 0.00 63 1022.9
20240221151105 20 337 4.8 8.0 0.00 0.00 0.00 61 1022.9
20240221150538 20 0 3.2 6.4 0.00 0.00 0.00 60 1023.0
20240221150037 20 299 4.8 6.4 0.00 0.00 0.00 64 1022.9
20240221145537 20 6 4.8 8.0 0.00 0.00 0.00 64 1022.8
20240221145035 20 348 4.8 8.0 0.00 0.00 0.00 63 1022.9
20240221144533 20 23 1.6 4.8 0.00 0.00 0.00 61 1023.0
20240221144033 20 12 1.6 9.7 0.00 0.00 0.00 60 1023.0
20240221143532 20 337 4.8 12.9 0.00 0.00 0.00 60 1022.7
20240221143032 20 331 4.8 8.0 0.00 0.00 0.00 59 1023.0
20240221142531 21 297 3.2 6.4 0.00 0.00 0.00 59 1022.9
20240221142031 21 25 4.8 8.0 0.00 0.00 0.00 56 1022.8
20240221141529 21 330 3.2 8.0 0.00 0.00 0.00 53 1022.8
20240221141029 20 20 4.8 6.4 0.00 0.00 0.00 59 1022.8
20240221140529 21 20 4.8 4.8 0.00 0.00 0.00 60 1022.6
20240221140025 21 356 3.2 8.0 0.00 0.00 0.00 57 1022.6
20240221135523 21 335 4.8 9.7 0.00 0.00 0.00 54 1022.6
20240221135023 21 336 6.4 11.3 0.00 0.00 0.00 48 1022.5
20240221134522 21 53 3.2 6.4 0.00 0.00 0.00 49 1022.7
20240221134022 21 335 9.7 9.7 0.00 0.00 0.00 51 1022.6
20240221133521 21 354 4.8 6.4 0.00 0.00 0.00 50 1022.6
20240221133019 21 0 1.6 8.0 0.00 0.00 0.00 52 1022.5
20240221132515 22 309 11.3 11.3 0.00 0.00 0.00 49 1022.5
20240221132014 22 8 6.4 8.0 0.00 0.00 0.00 43 1022.5
20240221131513 22 23 3.2 12.9 0.00 0.00 0.00 45 1022.4
20240221131012 22 17 6.4 11.3 0.00 0.00 0.00 47 1022.5
20240221130511 21 275 3.2 8.0 0.00 0.00 0.00 49 1022.4
20240221130009 22 28 4.8 8.0 0.00 0.00 0.00 50 1022.5
20240221125507 22 0 4.8 11.3 0.00 0.00 0.00 46 1022.5
20240221125007 22 355 4.8 8.0 0.00 0.00 0.00 47 1022.2
20240221124505 22 25 4.8 8.0 0.00 0.00 0.00 51 1022.4
20240221124004 22 341 4.8 8.0 0.00 0.00 0.00 50 1022.3
20240221123504 22 359 8.0 9.7 0.00 0.00 0.00 46 1022.2
20240221123003 22 276 0.0 8.0 0.00 0.00 0.00 48 1022.2
20240221122502 22 335 8.0 8.0 0.00 0.00 0.00 46 1022.4
20240221122001 22 0 8.0 9.7 0.00 0.00 0.00 48 1022.3
20240221121501 22 346 4.8 9.7 0.00 0.00 0.00 48 1022.2
20240221121000 22 335 4.8 9.7 0.00 0.00 0.00 48 1022.4
20240221120500 22 354 4.8 6.4 0.00 0.00 0.00 50 1022.4
20240221115959 22 0 0.0 6.4 0.00 0.00 0.00 52 1022.2
20240221115459 22 324 3.2 6.4 0.00 0.00 0.00 53 1022.3
20240221114958 22 352 3.2 9.7 0.00 0.00 0.00 50 1022.4
20240221114457 22 337 4.8 6.4 0.00 0.00 0.00 50 1022.1
20240221113956 22 311 0.0 8.0 0.00 0.00 0.00 49 1022.3
20240221113455 22 339 4.8 8.0 0.00 0.00 0.00 48 1022.4
20240221112955 22 0 3.2 6.4 0.00 0.00 0.00 48 1022.6
20240221112453 22 24 3.2 11.3 0.00 0.00 0.00 47 1022.5
20240221111952 22 90 0.0 8.0 0.00 0.00 0.00 49 1022.4
20240221111452 22 15 4.8 8.0 0.00 0.00 0.00 51 1022.3
20240221110951 21 346 3.2 6.4 0.00 0.00 0.00 48 1022.7
20240221110451 22 294 3.2 4.8 0.00 0.00 0.00 54 1022.6
20240221105951 22 49 4.8 8.0 0.00 0.00 0.00 51 1022.8
20240221105450 22 0 3.2 4.8 0.00 0.00 0.00 48 1022.6